Date String (YYYY-MM-DD hh:mm:ss) UTC,Instrument flags,Ambient pressure (hPa),Sample flow (lpm),Bypass flow (lpm),Sample temperature (°C),Ambient temperature (°C),ASC tube jacket temperature (°C),LED temperature (°C),Box temperature (°C),Sample RH (%),Span deviation,Mass concentration (μg/m³),Mass concentration (μg/m³),Mass concentration (μg/m³)
DateTimeUTC,F1_M11,P_M11,Q1_M11,Q2_M11,T1_M11,T2_M11,T3_M11,T4_M11,T5_M11,U1_M11,ZSPAN_M11,X0_M11,X2_M11,X1_M11
2022-02-21 09:00:00,,0812.6,5.01,0.00,23.4,22.5,00.0,32.6,25.1,06.4,0000.0,0002.36,0000.78,0000.60
2022-02-21 09:01:00,,0812.8,5.01,0.00,23.4,22.5,00.0,32.6,25.0,06.4,0000.0,0002.38,0000.78,0000.61
2022-02-21 09:02:00,,0812.7,4.99,0.00,23.4,22.5,00.0,32.6,25.0,06.4,0000.0,0002.52,0000.78,0000.61
2022-02-21 09:03:00,,0812.6,5.01,0.00,23.4,22.5,00.0,32.5,25.0,06.4,0000.0,0002.59,0000.80,0000.62
2022-02-21 09:04:00,,0812.6,5.00,0.00,23.4,22.5,00.0,32.5,25.0,06.5,0000.0,0002.82,0000.83,0000.62
2022-02-21 09:05:00,,0812.6,4.99,0.00,23.4,22.5,00.0,32.5,25.0,06.5,0000.0,0002.76,0000.81,0000.62
2022-02-21 09:06:00,,0812.7,5.01,0.00,23.4,22.5,00.0,32.5,25.1,06.5,0000.0,0002.79,0000.81,0000.62
2022-02-21 09:07:00,,0812.6,4.99,0.00,23.4,22.5,00.0,32.5,25.1,06.4,0000.0,0002.92,0000.84,0000.62
2022-02-21 09:08:00,,0812.6,4.99,0.00,23.4,22.5,00.0,32.5,25.1,06.4,0000.0,0002.97,0000.85,0000.63
2022-02-21 09:09:00,,0812.6,5.00,0.00,23.4,22.5,00.0,32.5,25.0,06.6,0000.0,0002.41,0000.88,0000.64
2022-02-21 09:10:00,,0812.6,5.00,0.00,23.4,22.5,00.0,32.5,25.1,06.4,0000.0,0001.86,0000.89,0000.64
2022-02-21 09:11:00,,0812.6,4.99,0.00,23.4,22.5,00.0,32.5,25.1,06.2,0000.0,0002.20,0000.90,0000.65
2022-02-21 09:12:00,,0812.6,5.00,0.00,23.4,22.5,00.0,32.5,25.1,06.0,0000.0,0002.69,0000.91,0000.63
2022-02-21 09:13:00,,0812.6,5.02,0.00,23.4,22.5,00.0,32.5,25.0,06.0,0000.0,0002.63,0000.90,0000.62
2022-02-21 09:14:00,,0812.6,4.99,0.00,23.4,22.5,00.0,32.5,25.1,06.0,0000.0,0002.88,0000.87,0000.61
2022-02-21 09:15:00,,0812.6,4.99,0.00,23.4,22.5,00.0,32.5,25.1,05.9,0000.0,0002.68,0000.85,0000.61
2022-02-21 09:16:00,,0812.5,5.02,0.00,23.3,22.5,00.0,32.4,25.1,06.0,0000.0,0002.69,0000.85,0000.60
2022-02-21 09:17:00,,0812.5,4.99,0.00,23.3,22.4,00.0,32.4,25.0,06.0,0000.0,0002.64,0000.84,0000.60
2022-02-21 09:18:00,,0812.5,5.01,0.00,23.3,22.4,00.0,32.4,25.0,06.0,0000.0,0002.55,0000.82,0000.59
2022-02-21 09:19:00,,0812.6,4.99,0.00,23.2,22.3,00.0,32.4,24.9,06.0,0000.0,0002.51,0000.80,0000.58
2022-02-21 09:20:00,,0812.6,4.99,0.00,23.2,22.3,00.0,32.4,24.9,06.0,0000.0,0002.47,0000.77,0000.56
2022-02-21 09:21:00,,0812.6,5.01,0.00,23.2,22.3,00.0,32.4,24.9,06.1,0000.0,0002.38,0000.73,0000.55
2022-02-21 09:22:00,,0812.6,5.01,0.00,23.1,22.3,00.0,32.3,24.8,06.1,0000.0,0001.97,0000.69,0000.53
2022-02-21 09:23:00,,0812.6,5.00,0.00,23.1,22.3,00.0,32.3,24.7,06.3,0000.0,0001.75,0000.69,0000.54
2022-02-21 09:24:00,,0812.5,5.01,0.00,23.1,22.3,00.0,32.3,24.7,06.4,0000.0,0002.11,0000.68,0000.54
2022-02-21 09:25:00,,0812.4,5.00,0.00,23.1,22.3,00.0,32.3,24.8,06.5,0000.0,0001.70,0000.66,0000.54
2022-02-21 09:26:00,,0812.4,4.99,0.00,23.1,22.3,00.0,32.3,24.8,06.4,0000.0,0001.72,0000.68,0000.54
2022-02-21 09:27:00,,0812.4,5.00,0.00,23.1,22.4,00.0,32.3,24.9,06.4,0000.0,0001.72,0000.69,0000.54
2022-02-21 09:28:00,,0812.4,5.01,0.00,23.1,22.4,00.0,32.2,24.9,06.4,0000.0,0001.77,0000.69,0000.54
2022-02-21 09:29:00,,0812.4,5.00,0.00,23.2,22.4,00.0,32.2,24.9,06.5,0000.0,0001.82,0000.70,0000.53
2022-02-21 09:30:00,,0812.4,5.00,0.00,23.2,22.4,00.0,32.2,24.9,06.5,0000.0,0001.90,0000.72,0000.54
2022-02-21 09:31:00,,0812.4,4.99,0.00,23.2,22.4,00.0,32.2,24.9,06.4,0000.0,0002.08,0000.78,0000.55
2022-02-21 09:32:00,,0812.5,5.01,0.00,23.2,22.4,00.0,32.2,24.9,06.3,0000.0,0002.12,0000.80,0000.56
2022-02-21 09:33:00,,0812.4,5.01,0.00,23.1,22.4,00.0,32.2,24.9,06.3,0000.0,0002.83,0000.83,0000.56
2022-02-21 09:34:00,,0812.4,4.99,0.00,23.1,22.4,00.0,32.2,24.9,06.3,0000.0,0002.60,0000.84,0000.57
2022-02-21 09:35:00,,0812.4,5.01,0.00,23.1,22.3,00.0,32.2,24.8,06.3,0000.0,0002.27,0000.84,0000.57
2022-02-21 09:36:00,,0812.4,4.99,0.00,23.0,22.3,00.0,32.2,24.8,06.3,0000.0,0002.38,0000.87,0000.57
2022-02-21 09:37:00,,0812.4,5.02,0.00,23.0,22.2,00.0,32.2,24.7,06.4,0000.0,0002.42,0000.87,0000.56
2022-02-21 09:38:00,,0812.4,4.99,0.00,23.0,22.2,00.0,32.2,24.7,06.5,0000.0,0002.52,0000.88,0000.56
2022-02-21 09:39:00,,0812.4,4.99,0.00,23.0,22.1,00.0,32.1,24.7,06.6,0000.0,0002.67,0000.93,0000.56
2022-02-21 09:40:00,,0812.4,5.00,0.00,23.0,22.2,00.0,32.1,24.7,06.7,0000.0,0002.63,0000.94,0000.57
2022-02-21 09:41:00,,0812.4,5.02,0.00,23.0,22.2,00.0,32.1,24.6,06.6,0000.0,0002.68,0000.96,0000.58
2022-02-21 09:42:00,,0812.4,5.00,0.00,22.9,22.2,00.0,32.1,24.6,06.5,0000.0,0002.54,0000.92,0000.58
2022-02-21 09:43:00,,0812.3,4.99,0.00,22.9,22.2,00.0,32.1,24.7,06.4,0000.0,0002.60,0000.91,0000.57
2022-02-21 09:44:00,,0812.3,5.02,0.00,23.0,22.2,00.0,32.1,24.7,06.5,0000.0,0002.17,0000.92,0000.57
2022-02-21 09:45:00,,0812.3,5.00,0.00,23.0,22.2,00.0,32.1,24.7,06.5,0000.0,0002.08,0000.91,0000.57
2022-02-21 09:46:00,,0812.2,4.99,0.00,23.0,22.3,00.0,32.1,24.7,06.5,0000.0,0002.03,0000.90,0000.56
2022-02-21 09:47:00,,0812.2,5.00,0.00,23.0,22.3,00.0,32.1,24.7,06.4,0000.0,0002.05,0000.91,0000.56
2022-02-21 09:48:00,,0812.2,5.01,0.00,23.0,22.3,00.0,32.1,24.8,06.4,0000.0,0002.11,0000.93,0000.57
2022-02-21 09:49:00,,0812.1,5.00,0.00,23.0,22.3,00.0,32.0,24.8,06.5,0000.0,0002.10,0000.94,0000.57
2022-02-21 09:50:00,,0812.1,5.00,0.00,23.0,22.2,00.0,32.0,24.7,06.5,0000.0,0002.04,0000.91,0000.57
2022-02-21 09:51:00,,0812.1,5.01,0.00,22.9,22.2,00.0,32.0,24.7,06.5,0000.0,0002.10,0000.93,0000.57
2022-02-21 09:52:00,,0812.0,5.00,0.00,22.9,22.1,00.0,32.0,24.7,06.5,0000.0,0002.06,0000.91,0000.56
2022-02-21 09:53:00,,0812.0,5.00,0.00,22.9,22.1,00.0,32.0,24.6,06.6,0000.0,0002.04,0000.91,0000.56
2022-02-21 09:54:00,,0812.1,4.99,0.00,22.9,22.1,00.0,32.0,24.6,06.6,0000.0,0002.05,0000.90,0000.56
2022-02-21 09:55:00,,0812.1,5.01,0.00,22.8,22.0,00.0,32.0,24.6,06.5,0000.0,0002.27,0000.90,0000.57
2022-02-21 09:56:00,,0812.1,5.01,0.00,22.8,22.0,00.0,32.0,24.5,06.6,0000.0,0002.77,0000.90,0000.57
2022-02-21 09:57:00,,0812.1,4.99,0.00,22.8,22.0,00.0,31.9,24.5,06.6,0000.0,0002.81,0000.90,0000.57
2022-02-21 09:58:00,,0812.1,4.99,0.00,22.7,22.0,00.0,31.9,24.4,06.6,0000.0,0002.76,0000.90,0000.57
2022-02-21 09:59:00,,0812.1,5.01,0.00,22.7,21.9,00.0,31.9,24.4,06.7,0000.0,0002.81,0000.90,0000.56
